User: anonymous   Login
Location: Unspecified
(0.0000°N, 0.0000°E)
Time: 22:34:31
(UTC+00:00)
Language:

Miranda - Orbit

View from above orbital plane
View from above orbital plane
View from above satellite
View from above satellite

Ground track
Ground track

The orbit data is extracted from the following two-line orbital elements,

1 07213U 74013A   18202.73216945  .00000047  00000-0  24489-4 0  9990
2 07213  97.8110 239.4184 0117830 195.9798 163.7664 14.42864799323454
Epoch (UTC): 21 July 2018 17:34:19
Eccentricity: 0.0117830
inclination: 97.8110°
perigee height: 665 km
apogee height: 833 km
right ascension of ascending node: 239.4184°
argument of perigee: 195.9798°
revolutions per day: 14.42864799
mean anomaly at epoch: 163.7664°
orbit number at epoch: 32345

The dashed part of the orbit path shows where the satellite is in the earth's shadow,  

DLR